Flag for U.S.A. Weather past 2 weeks in Pittsburgh, Pennsylvania, U.S.A.

Now
62 °F

Sunny.


Feels Like: 62 °F
Forecast: 54 / 81 °F
Wind: No wind

Location: Allegheny County Airport

Current Time: Aug 28, 2015 at 9:43:05 AM

Latest Report: Aug 28, 2015 at 8:53 AM


Visibility: 10 mi

Pressure: 30.22 "Hg

Humidity: 75%

Dew point: 54 °F

Location of PittsburghLocation

Historic Weather in Pittsburgh — Graph

°F

Pittsburgh temperature yesterday

Maximum temperature yesterday: 69 °F (at 5:53 PM)
Minimum temperature yesterday: 59 °F (at 2:53 AM)
Average temperature yesterday: 64 °F

Past Weeks' High & Low Weather Summary

 TemperatureHumidityPressure
High89 °F (Aug 17, 4:53 PM)90% (Aug 19, 4:01 AM)30.22 "Hg (Aug 19, 4:01 AM)
Low56 °F (Aug 26, 5:53 AM)26% (Aug 22, 2:53 PM)29.83 "Hg (Aug 20, 3:53 AM)
Average71 °F59%30.05 "Hg
* Reported Aug 13 7:53 AM — Aug 28 7:53 AM, Pittsburgh, Weather by CustomWeather, © 2015

Note: Actual official high and low records may vary slightly from our data, if they occured in-between our weather recording intervals... More about our weather records

Advertising

Pittsburgh weather history for previous 24 hours

 ConditionsComfort  
Time TempWeatherWind HumidityBarometerVisibility
7:53 AM
Fri, Aug 28
58 °FSunny.No wind84%30.22 "Hg6 mi
6:53 AM57 °FClear.No wind83%30.20 "Hg7 mi
5:53 AM57 °FClear.3 mph83%30.18 "Hg10 mi
4:53 AM57 °FClear.3 mph83%30.17 "Hg10 mi
3:53 AM59 °FClear.3 mph78%30.17 "Hg10 mi
2:53 AM59 °FClear.5 mph81%30.17 "Hg10 mi
1:53 AM60 °FClear.3 mph78%30.18 "Hg10 mi
12:53 AM62 °FClear.No wind70%30.19 "Hg10 mi
11:53 PM
Thu, Aug 27
63 °FClear.3 mph68%30.19 "Hg10 mi
10:53 PM65 °FPassing clouds.No wind61%30.19 "Hg10 mi
9:53 PM66 °FOvercast.No wind59%30.18 "Hg10 mi
8:53 PM66 °FOvercast.No wind59%30.16 "Hg10 mi
7:53 PM67 °FOvercast.3 mph55%30.16 "Hg10 mi
6:53 PM68 °FOvercast.5 mph53%30.15 "Hg10 mi
5:53 PM69 °FOvercast.3 mph53%30.14 "Hg10 mi
4:53 PM68 °FOvercast.3 mph55%30.14 "Hg10 mi
3:53 PM68 °FOvercast.5 mph53%30.15 "Hg10 mi
2:53 PM68 °FOvercast.3 mph55%30.16 "Hg10 mi
1:53 PM68 °FMostly cloudy.7 mph57%30.18 "Hg10 mi
12:53 PM66 °FMostly cloudy.3 mph61%30.19 "Hg10 mi
11:53 AM67 °FMore clouds than sun.5 mph59%30.19 "Hg10 mi
11:01 AM67 °FMostly cloudy.No wind57%30.18 "Hg10 mi
9:53 AM63 °FMore clouds than sun.3 mph68%30.18 "Hg10 mi
Weather by CustomWeather, © 2015

See weather overviewHow to use our weather pages